Hourly Data Report for August 05, 2002

SHERBROOKE A
QUEBEC

45°26'00.000" N
71°41'00.000" W
241.40 m
7028124
71610
YSC

Download Data

Hourly Data (August 2002)
Hourly Data Report for August 5, 2002
TIME
LST
Temp Definition
°C
Dew Point Definition
°C
Rel Hum Definition
%
Precip. Amount Definition
mm

Wind Dir Definition
10's deg

Wind Spd Definition
km/h
Visibility Definition
km
Stn Press Definition
kPa
Hmdx Definition


Wind Chill Definition


Weather Definition


00:00 19.7 18.7 94   13 4 15.0 98.70      
01:00 18.2 17.5 96   8 4 3.2 98.66      
02:00 18.5 18.0 97     0 6.4 98.58      
03:00 18.7 18.1 96     0 8.0 98.53      
04:00 18.4 17.7 96     0 3.5 98.48      
05:00 18.6 18.0 96     0 5.6 98.47      
06:00 19.5 18.6 95     0 12.9 98.45      
07:00 21.1 18.5 85   22 7 24.1 98.43 27   Mostly Cloudy
08:00 22.1 19.1 83   25 6 24.1 98.39 29   Mostly Cloudy
09:00 22.7 18.1 75   23 9 24.1 98.34 29   Mostly Cloudy
10:00 23.8 18.0 70   21 9 24.1 98.29 30   Mostly Cloudy
11:00 24.4 17.2 64   23 15 24.1 98.26 30   Mostly Cloudy
12:00 25.8 18.1 63   24 15 24.1 98.20 32   Mostly Cloudy
13:00 25.9 18.9 65   28 20 24.1 98.14 33   Mostly Cloudy
14:00 24.8 18.9 70   24 11 24.1 98.08 31   Mostly Cloudy
15:00 23.7 18.5 73   27 19 24.1 98.05 30   Mostly Cloudy
16:00 22.7 18.2 76   26 13 24.1 98.07 29   Mostly Cloudy
17:00 21.2 15.6 70   34 9 15.0 98.07 26    
18:00 20.0 13.4 66   31 9 15.0 98.07      
19:00 18.3 15.4 83     0 15.0 98.06      
20:00 17.9 15.0 83   21 4 15.0 98.07      
21:00 16.8 15.1 90   29 7 15.0 98.10      
22:00 17.4 14.8 85   31 6 15.0 98.14      
23:00 16.3 10.3 68   34 11 15.0 98.22      

Notes on Data Quality.

Legend

  • E = Estimated
  • M = Missing
  • NA = Not Available*
  • [empty] = Indicates an unobserved value
Date modified: